Temperature
5 6 5 6 5 5 5 5 5 4 4 4 5 5 5 5 5 4 4 4 4 4 4 4 4 4 4 4 4 4 4 3 3 3 3 3 3 3
5 5 5 5 5 5 5 5 5 4 4 4 4 4 4 4 4 4 4 4 4 4 4 4 4 4 4 3 3 3 3 3 3 3 3 3 3 3
4 4 5 4 4 4 4 4 4 4 4 4 4 4 4 4 4 4 4 4 4 4 3 3 3 3 3 3 3 3 3 2 2 2 2 2 2 2
4 4 4 4 4 4 4 4 4 4 4 4 4 3 3 3 3 3 3 3 3 3 3 3 3 3 3 3 2 2 2 2 2 2 2 2 2 2
3 3 3 3 3 3 3 3 3 3 3 3 3 3 3 3 3 3 3 3 3 3 3 2 2 2 2 2 2 2 2 2 2 2 1 1 1 1
3 3 3 3 3 3 3 3 3 3 2 2 3 2 2 2 2 2 3 3 2 2 2 2 2 2 2 2 2 1 1 1 1 1 1 1 1 1
2 2 2 2 2 2 2 2 2 2 2 2 2 2 2 2 2 2 2 2 2 2 2 2 2 2 2 1 1 1 1 1 1 1 1 1 1 1
2 2 2 2 2 2 2 2 1 1 1 1 1 1 1 1 1 1 1 1 1 1 1 1 1 1 1 1 1 1 1 1 0 0 0 0 0 0
1 1 1 1 1 1 1 1 1 1 1 1 1 1 0 0 1 1 1 1 1 1 1 1 1 1 1 1 0 0 0 0 0 0 0 0 0 -0
1 1 1 1 1 1 1 1 1 1 0 0 0 0 0 0 0 0 0 0 0 0 0 0 1 0 0 0 0 0 0 -0 -0 -0 -0 -0 -0 -0
0 0 0 0 0 0 0 0 0 0 0 -0 -0 -0 -0 -0 -0 -0 -0 -0 -0 -0 -0 -0 -0 -0 0 0 -0 -0 -0 -0 -0 -1 -1 -1 -1 -1
-0 -0 -0 -0 -0 -0 -0 -0 -0 -0 -0 -0 -0 -0 -0 -0 -0 -1 -1 -1 -1 -1 -1 -1 -1 -1 -1 -0 -0 -0 -1 -1 -1 -1 -1 -1 -1 -1
-1 -1 -1 -1 -1 -1 -1 -1 -1 -1 -1 -1 -1 -1 -1 -1 -1 -1 -1 -1 -1 -1 -1 -1 -1 -1 -1 -1 -1 -1 -1 -1 -1 -1 -1 -2 -2 -2
-1 -1 -1 -1 -1 -1 -1 -1 -1 -1 -1 -1 -1 -1 -1 -1 -1 -1 -1 -1 -1 -2 -2 -2 -2 -2 -2 -2 -2 -1 -1 -1 -1 -2 -2 -2 -2 -2
-2 -2 -2 -2 -2 -2 -2 -2 -2 -2 -2 -2 -2 -2 -2 -2 -2 -2 -2 -2 -2 -2 -2 -2 -2 -2 -2 -2 -2 -2 -2 -2 -2 -2 -2 -2 -2 -2
-2 -2 -2 -2 -2 -2 -2 -2 -2 -2 -3 -3 -2 -2 -2 -2 -2 -2 -2 -2 -2 -2 -2 -2 -2 -2 -2 -2 -2 -2 -3 -3 -3 -2 -2 -3 -3 -3
-3 -3 -3 -3 -3 -3 -3 -3 -3 -3 -3 -3 -3 -3 -3 -3 -3 -3 -3 -3 -3 -3 -2 -2 -2 -3 -3 -3 -3 -3 -3 -3 -3 -3 -3 -3 -3 -3
-3 -3 -3 -3 -3 -3 -3 -3 -3 -3 -3 -3 -3 -3 -3 -3 -3 -3 -3 -3 -3 -3 -3 -3 -3 -3 -3 -3 -3 -3 -3 -3 -3 -3 -3 -3 -3 -3
-3 -3 -3 -4 -4 -4 -4 -4 -4 -4 -4 -4 -4 -4 -4 -4 -4 -4 -4 -4 -4 -4 -4 -4 -4 -4 -4 -4 -4 -4 -4 -4 -4 -3 -4 -4 -4 -3
-4 -4 -4 -4 -4 -4 -4 -4 -4 -4 -4 -4 -4 -4 -4 -4 -4 -5 -4 -4 -4 -4 -4 -4 -4 -4 -4 -4 -4 -4 -4 -4 -4 -4 -4 -4 -4 -4
-4 -4 -4 -4 -4 -4 -4 -4 -4 -4 -5 -5 -5 -5 -5 -5 -5 -5 -5 -5 -5 -5 -5 -4 -4 -5 -5 -5 -5 -4 -4 -4 -4 -4 -4 -4 -4 -4
-5 -5 -4 -4 -5 -5 -5 -5 -5 -5 -5 -5 -5 -5 -5 -5 -5 -5 -5 -5 -5 -5 -5 -5 -5 -5 -5 -5 -5 -5 -4 -4 -4 -5 -5 -5 -5 -5
-5 -5 -5 -5 -5 -5 -5 -5 -5 -5 -5 -5 -5 -5 -5 -6 -6 -6 -6 -6 -6 -5 -5 -5 -5 -5 -5 -5 -5 -5 -5 -5 -5 -4 -4 -5 -5 -5
Wind_Speed
2 2 1 1 1 1 2 3 3 3 4 3 2 2 3 3 4 4 4 6 6 6 6 6 5 5 6 6 6 7 8 8 9 9 10 11 12 12
2 2 1 1 1 1 2 2 2 3 4 3 3 2 3 3 4 4 5 6 6 6 6 6 5 5 5 5 6 6 6 7 8 9 10 11 12 13
2 3 2 2 1 1 1 1 1 2 3 3 2 2 2 2 3 4 4 4 5 6 6 6 6 5 5 5 5 5 6 6 7 9 10 11 12 13
3 3 3 2 2 2 2 2 2 2 3 4 3 2 2 3 3 3 3 4 4 5 6 6 6 6 5 5 5 5 5 6 7 8 9 10 11 12
3 3 3 3 3 2 2 2 2 2 2 2 3 2 2 2 2 2 3 3 4 5 5 6 7 6 5 5 5 4 5 6 6 7 8 9 10 11
2 2 3 3 3 3 2 3 2 2 1 2 2 2 2 1 1 2 3 2 3 3 5 6 6 6 6 5 5 5 6 6 6 7 7 8 9 10
2 2 2 3 3 3 2 3 3 2 2 2 2 2 2 2 2 2 3 4 3 2 3 4 4 4 5 6 6 6 6 6 6 7 7 8 9 10
2 2 2 2 2 2 2 3 3 3 3 3 2 3 3 3 2 2 2 3 3 1 2 4 2 3 4 5 6 6 6 6 6 6 7 8 9 9
2 2 2 2 2 2 2 1 1 2 3 3 3 4 4 4 3 3 3 3 4 2 2 4 2 4 4 6 7 5 5 6 6 7 7 8 8 9
2 3 2 3 3 2 1 1 1 2 2 2 3 4 3 3 3 3 4 4 3 2 1 3 3 3 4 6 6 5 5 6 7 8 7 7 8 8
2 2 3 3 3 2 2 2 2 2 2 2 3 3 3 3 2 1 2 2 3 2 1 1 2 3 3 3 5 5 6 7 8 8 7 7 8 8
1 2 3 3 3 2 2 2 3 3 2 2 2 3 2 2 2 1 2 2 2 2 1 1 2 1 3 2 2 4 5 7 8 7 8 7 7 5
2 2 2 3 3 2 2 2 3 2 1 1 2 2 1 2 2 2 2 2 3 3 2 1 1 1 2 3 3 3 3 4 5 7 8 7 6 5
2 2 2 3 3 3 2 2 2 1 0 0 1 1 2 2 2 2 3 3 3 4 4 3 2 3 2 3 3 3 3 4 4 4 5 7 6 6
2 3 3 3 2 2 2 1 0 0 0 1 2 2 2 2 2 2 2 2 3 4 4 4 3 3 3 3 3 3 3 3 3 3 3 4 4 4
2 2 2 2 1 1 0 0 0 1 1 1 2 2 2 1 1 1 2 2 2 3 4 4 4 3 3 4 4 4 3 3 3 3 4 4 4 4
2 1 1 1 1 1 0 0 0 1 1 1 1 2 2 2 2 2 1 2 2 3 3 3 4 4 4 3 3 4 3 3 3 3 2 3 3 4
2 2 2 2 2 2 2 1 1 1 1 1 1 1 2 2 2 2 2 1 2 3 3 3 3 3 2 2 3 4 3 3 3 3 2 3 4 3
2 2 2 3 3 2 2 2 2 2 2 2 2 2 2 2 2 2 2 2 3 3 3 3 2 2 2 4 3 3 3 3 3 2 2 2 3 4
2 2 3 3 2 2 2 2 2 2 1 2 2 2 2 2 2 2 2 2 3 3 3 3 2 3 4 4 3 3 4 3 2 3 3 2 3 4
2 2 2 2 2 2 2 2 2 2 2 2 2 2 2 2 2 2 2 4 3 3 4 4 4 5 3 1 2 2 3 4 3 2 2 2 2 2
2 2 2 2 2 2 2 2 2 3 3 2 2 2 2 2 2 3 3 3 3 3 4 3 3 2 1 2 3 3 2 3 4 3 2 1 1 1
2 2 2 2 2 2 2 3 3 3 2 2 2 2 2 2 2 2 3 3 3 3 3 2 2 1 1 2 2 2 2 3 2 2 3 4 3 4
Wind_Direction
197 193 206 227 210 215 203 193 197 249 255 247 248 244 257 260 269 268 273 274 280 286 290 294 299 309 315 318 321 324 326 329 334 335 336 336 336 336
193 185 212 222 215 210 209 218 207 215 253 253 250 262 267 275 283 282 273 276 275 281 286 284 290 301 304 307 310 316 324 330 333 334 334 335 335 334
197 191 218 221 222 221 210 217 216 208 247 274 261 263 247 265 292 286 282 277 277 279 283 281 285 288 290 296 304 310 320 324 328 330 332 333 333 332
204 198 212 220 226 230 218 225 228 223 223 262 279 267 253 256 269 270 286 284 279 281 281 282 284 282 281 286 298 304 310 316 322 327 329 331 331 330
202 209 212 207 226 238 239 245 245 247 229 240 272 273 263 266 280 284 289 280 286 288 282 279 280 278 276 278 289 293 301 306 312 319 323 327 329 330
209 218 223 212 215 219 235 245 245 238 227 236 269 280 276 275 266 283 295 290 285 296 287 285 282 276 274 277 282 288 293 299 306 312 316 322 327 328
224 233 243 229 227 228 233 235 234 236 231 242 261 293 287 292 272 265 279 293 281 269 278 279 275 269 269 274 280 287 293 298 303 310 317 323 326 325
225 240 251 240 235 251 252 249 243 233 227 236 254 266 275 281 285 278 276 297 291 268 277 283 259 266 267 271 279 288 294 300 306 311 315 317 319 319
223 237 265 264 249 227 248 272 276 275 245 225 230 248 255 257 260 274 272 264 267 270 268 274 271 267 269 277 279 280 288 297 304 309 309 311 314 314
226 225 237 260 249 215 220 244 260 270 265 249 230 243 249 246 238 252 262 276 276 261 228 261 274 277 288 276 273 281 293 301 302 305 305 309 312 311
243 236 238 244 250 226 198 220 264 291 302 275 273 277 284 287 308 334 312 296 286 277 228 243 274 294 285 266 269 283 294 299 300 300 305 308 309 307
254 256 246 241 254 245 199 211 242 269 288 308 308 302 303 293 286 239 240 264 279 273 235 246 264 301 297 274 270 280 289 296 300 297 299 303 307 304
237 249 249 251 257 257 241 229 242 258 253 257 286 294 301 285 272 274 246 236 247 259 246 227 253 255 250 288 291 284 276 280 289 291 292 295 302 303
229 237 239 245 255 259 260 266 264 283 174 294 293 289 284 283 280 287 279 269 258 260 256 236 234 231 249 279 283 295 292 282 282 287 287 295 297 301
235 235 239 245 244 246 270 276 252 226 203 274 285 285 283 276 288 301 305 306 305 298 278 263 253 246 239 250 266 283 294 286 278 281 283 282 280 288
230 226 221 206 218 250 332 317 309 240 227 246 269 283 296 302 300 308 316 324 317 313 311 294 277 256 259 259 257 275 278 271 290 289 286 285 279 274
198 201 193 193 215 225 221 266 285 290 274 270 273 293 304 306 309 319 321 329 313 311 320 323 312 290 267 254 257 258 267 275 277 281 285 293 287 280
204 205 214 222 225 224 226 241 250 260 273 272 266 271 290 298 304 320 326 306 300 307 311 315 325 330 327 291 240 249 263 271 283 286 279 277 288 292
206 205 213 218 222 222 225 233 249 254 251 254 261 271 285 291 296 299 302 304 301 300 302 307 310 299 291 295 284 234 257 284 293 289 274 266 272 286
213 214 215 214 214 221 227 235 243 245 245 253 256 265 265 268 276 283 282 287 295 300 303 301 289 276 266 270 278 288 276 265 266 281 288 289 289 295
228 226 225 219 219 228 233 232 231 234 240 246 256 260 255 254 264 273 279 289 289 289 291 289 284 292 292 286 289 295 298 285 273 270 275 291 307 323
234 232 232 229 226 228 230 229 234 236 235 238 249 251 254 255 261 267 276 283 281 279 282 289 303 301 263 260 279 290 303 323 328 322 299 258 235 262
240 240 238 234 231 228 225 226 231 240 240 239 243 247 251 258 263 265 272 273 278 286 296 303 314 319 289 271 274 288 298 309 321 330 321 323 299 296
Height
1494 1495 1496 1497 1498 1499 1499 1499 1500 1497 1496 1496 1497 1497 1498 1498 1497 1497 1497 1497 1497 1496 1495 1495 1494 1493 1492 1491 1490 1489 1488 1486 1485 1483 1482 1480 1478 1476
1490 1491 1492 1493 1494 1494 1495 1495 1495 1495 1493 1492 1492 1493 1493 1494 1494 1493 1493 1493 1492 1492 1491 1491 1490 1489 1488 1487 1486 1485 1484 1483 1481 1480 1478 1477 1475 1473
1486 1487 1488 1489 1490 1490 1491 1491 1491 1491 1490 1489 1489 1489 1490 1490 1490 1490 1489 1489 1488 1488 1487 1487 1486 1485 1484 1483 1482 1481 1480 1479 1478 1476 1475 1474 1472 1470
1482 1483 1484 1485 1485 1486 1486 1486 1486 1487 1486 1485 1485 1485 1485 1486 1486 1485 1485 1484 1484 1483 1483 1482 1482 1481 1480 1479 1479 1478 1476 1475 1474 1473 1472 1470 1468 1467
1478 1479 1480 1480 1480 1481 1481 1482 1482 1482 1482 1481 1481 1481 1481 1481 1481 1481 1481 1480 1480 1479 1479 1478 1477 1477 1476 1475 1474 1474 1473 1472 1470 1469 1468 1467 1465 1463
1474 1475 1476 1476 1476 1477 1477 1478 1478 1478 1478 1478 1477 1477 1477 1477 1477 1477 1476 1476 1475 1475 1475 1474 1473 1472 1472 1471 1470 1469 1469 1468 1467 1466 1464 1463 1462 1460
1470 1471 1472 1472 1473 1473 1473 1474 1474 1474 1473 1473 1473 1473 1473 1473 1473 1472 1472 1471 1471 1471 1470 1470 1469 1468 1467 1466 1466 1466 1465 1464 1463 1462 1461 1459 1458 1456
1467 1467 1468 1468 1469 1470 1470 1471 1471 1470 1470 1469 1469 1469 1469 1469 1469 1469 1468 1467 1466 1467 1466 1465 1465 1464 1463 1462 1462 1461 1460 1460 1459 1458 1457 1456 1454 1453
1463 1463 1463 1464 1465 1465 1466 1467 1467 1467 1467 1467 1466 1466 1466 1466 1466 1465 1464 1463 1463 1462 1462 1461 1461 1460 1459 1458 1458 1457 1457 1456 1455 1454 1453 1452 1451 1449
1459 1459 1459 1460 1461 1461 1461 1462 1462 1463 1463 1463 1464 1464 1464 1463 1463 1462 1461 1460 1459 1459 1458 1457 1456 1456 1455 1455 1454 1454 1453 1453 1452 1451 1450 1448 1447 1446
1455 1456 1456 1456 1457 1457 1458 1458 1458 1459 1460 1460 1460 1460 1460 1460 1459 1458 1457 1456 1454 1454 1454 1453 1452 1451 1451 1451 1451 1450 1450 1449 1448 1447 1446 1445 1444 1443
1451 1452 1453 1453 1454 1454 1454 1454 1454 1455 1455 1456 1456 1456 1456 1456 1455 1455 1454 1452 1451 1450 1450 1450 1449 1448 1447 1446 1447 1446 1445 1445 1444 1443 1442 1441 1440 1439
1447 1448 1449 1450 1450 1451 1451 1451 1451 1452 1452 1452 1452 1452 1452 1452 1451 1451 1450 1449 1448 1447 1446 1446 1445 1444 1444 1442 1442 1442 1441 1440 1439 1439 1438 1437 1436 1435
1444 1444 1445 1446 1447 1447 1448 1448 1448 1449 1448 1448 1448 1448 1448 1448 1447 1446 1446 1445 1444 1444 1443 1442 1441 1441 1440 1438 1437 1437 1437 1436 1435 1434 1434 1434 1433 1432
1440 1441 1442 1442 1443 1443 1444 1444 1445 1445 1445 1444 1444 1444 1445 1444 1444 1443 1442 1441 1441 1440 1439 1439 1438 1437 1436 1435 1434 1433 1432 1432 1432 1431 1430 1430 1429 1428
1437 1438 1438 1439 1440 1440 1440 1441 1441 1441 1441 1442 1442 1441 1441 1441 1440 1439 1438 1438 1437 1436 1436 1435 1434 1433 1432 1431 1431 1430 1429 1428 1428 1427 1427 1426 1426 1425
1433 1434 1435 1435 1436 1436 1436 1437 1438 1438 1438 1438 1438 1438 1438 1437 1437 1436 1436 1435 1433 1432 1431 1431 1430 1429 1429 1428 1427 1426 1426 1425 1424 1424 1423 1422 1422 1421
1430 1430 1430 1431 1432 1432 1433 1433 1434 1434 1435 1435 1435 1435 1434 1434 1434 1433 1433 1432 1430 1429 1429 1428 1426 1425 1424 1424 1424 1423 1422 1421 1421 1421 1420 1419 1418 1418
1426 1426 1427 1427 1428 1429 1429 1430 1430 1431 1432 1432 1432 1431 1431 1431 1430 1429 1429 1428 1427 1427 1426 1425 1424 1422 1421 1420 1420 1421 1420 1418 1418 1417 1417 1416 1416 1415
1422 1422 1423 1424 1425 1425 1426 1426 1427 1428 1428 1428 1428 1428 1428 1427 1426 1426 1425 1425 1424 1424 1423 1422 1421 1420 1419 1419 1417 1417 1417 1416 1415 1415 1414 1414 1414 1413
1418 1419 1420 1420 1421 1422 1422 1423 1423 1424 1424 1424 1424 1424 1424 1424 1423 1423 1422 1422 1422 1421 1420 1419 1418 1419 1418 1417 1416 1414 1414 1414 1414 1413 1412 1411 1410 1410
1415 1416 1416 1417 1417 1418 1419 1419 1420 1420 1420 1421 1421 1421 1421 1421 1420 1420 1419 1419 1419 1418 1417 1417 1416 1416 1415 1414 1413 1412 1412 1412 1412 1411 1411 1410 1409 1408
1412 1412 1413 1413 1414 1414 1415 1415 1416 1416 1417 1417 1417 1418 1417 1417 1417 1417 1417 1416 1416 1415 1415 1414 1414 1413 1412 1412 1411 1410 1410 1409 1409 1408 1408 1408 1408 1407